Weather in Kulikovo

Russia / Republic of Karelia     61°11′23″N   29°45′07″E
temp.,
°C
wind,
m/s
gust,
m/s
humid.,
%
clouds,
%
prec.,
mm/h
press.,
hPa
HPBL,
m
3 march, wed
wed300:00−1wnw411890 0.0 1016426
03:00−2w411890 0.0 1016423
06:00−2w4119228 0.0 1014348
09:00−3w4119333 0.0 1013351
12:000w5128873 0.0 1010553
15:00+1w6128887 0.0 1006970
18:00+2w51389100 0.1 1002986
21:000wnw5119295 0.4 10011031
4 march, thu
thu400:00−4nw5148033 0.1 1001566
03:00−5nw4118517 0.1 1003381
06:00−7wnw38930 0.0 1002255
09:00−7nw389423 0.0 1003341
12:00−5nnw478791 0.1 1003625
15:00−4nnw488495 0.1 1004736
18:00−6nw4108476 0.0 1004502
21:00−8nw3109154 0.0 1005476
5 march, fri
fri500:00−9nw399345 0.0 1006330
03:00−10nw399270 0.0 1007311
06:00−11nw389480 0.0 1008273
09:00−10nnw389282 0.1 1010423
12:00−8n357893 0.0 1011650
15:00−6nw357060 0.0 1013664
18:00−8nw278614 0.0 1013235
21:00−10nw259417 0.0 1015133
6 march, sat
sat600:00−11nw25940 0.0 101692
03:00−12wnw23950 0.0 101683
06:00−12w23950 0.0 101561
09:00−11sw26950 0.0 1014181
12:00−6ssw498332 0.0 1010511
15:00−4ssw6139266 0.2 10041015
18:00−3ssw61395100 1.7 996876
21:00−2sw61495100 4.1 989854
7 march, sun
sun700:00−1w81676100 1.7 9851157
03:00−9wnw6157176 1.8 9861121
06:00−11w6147288 0.0 9851145
09:00−11wnw6129094 0.1 9841020
12:00−7n3691100 0.8 987683
15:00−6n71181100 1.1 9921043
18:00−8n51183100 0.0 998809
21:00−10n6128699 0.1 1003798